Tracking 23757 objects as of 26-Oct-2021
HD Live streaming from Space Station
objects crossing your sky now

BREEZE-M DEB

Track BREEZE-M DEB now!
10-day predictions


NORAD ID: 38651
Int'l Code: 2008-011DA
Perigee: 802.0 km
Apogee: 26,533.7 km
Inclination: 48.8 °
Period: 470.5 minutes
Semi major axis: 20038 km
RCS: 0.3699 m2 (medium)
Launch date: March 14, 2008
Source: Commonwealth of Independent States (former USSR) (CIS)
Launch site: TYURATAM MISSILE AND SPACE COMPLEX (TTMTR)

Note: This is SATELLITE DEBRIS
aabbcc
Your satellite tracking list
Your tracking list is empty




NASA's NSSDC Master Catalog

Two Line Element Set (TLE):
1 38651U 08011DA  21298.10290970  .00000043  00000-0 -13482-3 0  9992
2 38651  48.8356 258.4806 6420476  49.2883   7.7426  3.06051018122943
Source of the keplerian elements: AFSPC